| time (UTC) | temp C | wind direction | speed KPH | gust KPH | rain 1hr cm | rain 24hr cm | rain mn cm | humidity % | barometer mb |
| 20260509054703 | 21 | 94 | 1.6 | 1.6 | 0.00 | 0.00 | 0.00 | 87 | 1008.2 |
| 20260509054201 | 21 | 89 | 0.0 | 1.6 | 0.00 | 0.00 | 0.00 | 88 | 1008.6 |
| 20260509053659 | 21 | 85 | 0.0 | 0.0 | 0.00 | 0.00 | 0.00 | 88 | 1008.8 |
| 20260509053155 | 21 | 78 | 0.0 | 0.0 | 0.00 | 0.00 | 0.00 | 88 | 1009.0 |
| 20260509052654 | 21 | 89 | 0.0 | 0.0 | 0.00 | 0.00 | 0.00 | 88 | 1008.9 |
| 20260509052151 | 21 | 88 | 0.0 | 1.6 | 0.00 | 0.00 | 0.00 | 88 | 1009.1 |
| 20260509051649 | 21 | 71 | 0.0 | 0.0 | 0.00 | 0.00 | 0.00 | 88 | 1009.2 |
| 20260509051146 | 21 | 87 | 0.0 | 0.0 | 0.00 | 0.00 | 0.00 | 88 | 1008.8 |
| 20260509050643 | 21 | 86 | 0.0 | 0.0 | 0.00 | 0.00 | 0.00 | 88 | 1009.0 |
| 20260509050139 | 21 | 100 | 0.0 | 1.6 | 0.00 | 0.00 | 0.00 | 88 | 1009.5 |
| 20260509045637 | 21 | 72 | 0.0 | 0.0 | 0.00 | 2.95 | 2.95 | 87 | 1009.6 |
| 20260509045133 | 21 | 81 | 0.0 | 0.0 | 0.00 | 2.95 | 2.95 | 86 | 1009.4 |
| 20260509044631 | 21 | 72 | 0.0 | 0.0 | 0.00 | 2.95 | 2.95 | 86 | 1009.0 |
| 20260509044128 | 21 | 72 | 0.0 | 0.0 | 0.00 | 2.95 | 2.95 | 86 | 1008.6 |
| 20260509043624 | 21 | 75 | 0.0 | 1.6 | 0.00 | 2.95 | 2.95 | 86 | 1008.3 |
| 20260509043120 | 21 | 79 | 0.0 | 1.6 | 0.00 | 2.95 | 2.95 | 85 | 1008.2 |
| 20260509042617 | 21 | 84 | 0.0 | 1.6 | 0.00 | 2.95 | 2.95 | 85 | 1008.2 |
| 20260509042112 | 21 | 81 | 0.0 | 1.6 | 0.00 | 2.95 | 2.95 | 85 | 1008.3 |
| 20260509041610 | 21 | 74 | 0.0 | 3.2 | 0.00 | 2.95 | 2.95 | 85 | 1008.1 |
| 20260509041107 | 21 | 67 | 3.2 | 3.2 | 0.00 | 2.95 | 2.95 | 84 | 1007.7 |
| 20260509040606 | 21 | 83 | 1.6 | 4.8 | 0.00 | 2.95 | 2.95 | 84 | 1007.5 |
| 20260509035559 | 21 | 105 | 0.0 | 8.0 | 0.00 | 2.95 | 2.95 | 84 | 1008.0 |
| 20260509035055 | 21 | 83 | 1.6 | 4.8 | 0.00 | 2.95 | 2.95 | 84 | 1007.2 |
| 20260509034553 | 22 | 99 | 1.6 | 3.2 | 0.00 | 2.95 | 2.95 | 83 | 1007.4 |
| 20260509034050 | 22 | 102 | 3.2 | 4.8 | 0.00 | 2.95 | 2.95 | 82 | 1008.0 |
| 20260509033547 | 22 | 104 | 1.6 | 1.6 | 0.00 | 2.95 | 2.95 | 82 | 1008.7 |
| 20260509033044 | 22 | 79 | 0.0 | 0.0 | 0.00 | 2.95 | 2.95 | 82 | 1009.2 |
| 20260509032542 | 22 | 77 | 0.0 | 0.0 | 0.00 | 2.95 | 2.95 | 81 | 1009.2 |
| 20260509032038 | 22 | 77 | 0.0 | 0.0 | 0.00 | 2.95 | 2.95 | 81 | 1009.1 |
| 20260509031536 | 22 | 75 | 0.0 | 0.0 | 0.00 | 2.95 | 2.95 | 81 | 1008.6 |
| 20260509031033 | 22 | 75 | 0.0 | 0.0 | 0.00 | 2.95 | 2.95 | 81 | 1008.4 |
| 20260509030531 | 22 | 73 | 0.0 | 0.0 | 0.00 | 2.95 | 2.95 | 81 | 1008.6 |
| 20260509030028 | 21 | 81 | 0.0 | 0.0 | 0.00 | 2.95 | 2.95 | 81 | 1008.7 |
| 20260509025524 | 21 | 71 | 0.0 | 1.6 | 0.00 | 2.95 | 2.95 | 81 | 1008.4 |
| 20260509025020 | 21 | 78 | 0.0 | 0.0 | 0.00 | 2.95 | 2.95 | 81 | 1008.6 |
| 20260509024516 | 21 | 78 | 0.0 | 0.0 | 0.00 | 2.95 | 2.95 | 81 | 1008.5 |
| 20260509024012 | 21 | 76 | 0.0 | 0.0 | 0.00 | 2.95 | 2.95 | 81 | 1008.3 |
| 20260509023510 | 22 | 76 | 0.0 | 0.0 | 0.00 | 2.95 | 2.95 | 80 | 1008.3 |
| 20260509023006 | 22 | 65 | 1.6 | 1.6 | 0.00 | 2.95 | 2.95 | 80 | 1008.0 |
| 20260509022503 | 22 | 73 | 0.0 | 1.6 | 0.00 | 2.95 | 2.95 | 80 | 1007.8 |
| 20260509022001 | 22 | 89 | 1.6 | 3.2 | 0.00 | 2.95 | 2.95 | 80 | 1007.4 |
| 20260509021457 | 22 | 97 | 1.6 | 3.2 | 0.00 | 2.95 | 2.95 | 79 | 1007.0 |
| 20260509020954 | 22 | 134 | 3.2 | 4.8 | 0.00 | 2.95 | 2.95 | 79 | 1007.1 |
| 20260509020453 | 22 | 87 | 0.0 | 3.2 | 0.00 | 2.95 | 2.95 | 79 | 1007.1 |
| 20260509015949 | 22 | 94 | 1.6 | 3.2 | 0.00 | 2.95 | 2.95 | 79 | 1007.1 |
| 20260509015448 | 22 | 87 | 0.0 | 1.6 | 0.00 | 2.95 | 2.95 | 79 | 1007.1 |
| 20260509014945 | 22 | 102 | 0.0 | 1.6 | 0.00 | 2.95 | 2.95 | 78 | 1007.2 |
| 20260509014441 | 22 | 134 | 0.0 | 3.2 | 0.00 | 2.95 | 2.95 | 78 | 1007.0 |
| 20260509013938 | 22 | 108 | 1.6 | 1.6 | 0.00 | 2.95 | 2.95 | 78 | 1007.0 |
| 20260509013435 | 22 | 106 | 1.6 | 3.2 | 0.00 | 2.95 | 2.95 | 77 | 1006.6 |
| 20260509012931 | 22 | 87 | 1.6 | 3.2 | 0.00 | 2.95 | 2.95 | 77 | 1006.8 |
| 20260509012427 | 22 | 147 | 6.4 | 9.7 | 0.00 | 2.95 | 2.95 | 77 | 1006.9 |
| 20260509011924 | 22 | 88 | 0.0 | 1.6 | 0.00 | 2.95 | 2.95 | 76 | 1007.1 |
| 20260509011422 | 22 | 87 | 0.0 | 0.0 | 0.00 | 2.95 | 2.95 | 76 | 1006.8 |
| 20260509010920 | 22 | 94 | 1.6 | 3.2 | 0.00 | 2.95 | 2.95 | 76 | 1006.9 |
| 20260509010417 | 22 | 93 | 1.6 | 1.6 | 0.00 | 2.95 | 2.95 | 76 | 1006.9 |
| 20260509005913 | 22 | 86 | 0.0 | 1.6 | 0.00 | 2.95 | 2.95 | 76 | 1007.1 |
| 20260509005412 | 22 | 109 | 1.6 | 1.6 | 0.00 | 2.95 | 2.95 | 75 | 1006.9 |
| 20260509004911 | 22 | 82 | 1.6 | 4.8 | 0.00 | 2.95 | 2.95 | 75 | 1006.9 |
| 20260509004408 | 22 | 86 | 1.6 | 1.6 | 0.00 | 2.95 | 2.95 | 75 | 1006.6 |
| 20260509003906 | 23 | 97 | 0.0 | 1.6 | 0.00 | 2.95 | 2.95 | 75 | 1006.2 |
| 20260509003403 | 23 | 93 | 1.6 | 1.6 | 0.00 | 2.95 | 2.95 | 75 | 1006.5 |
| 20260509002900 | 23 | 96 | 3.2 | 3.2 | 0.00 | 2.95 | 2.95 | 74 | 1006.3 |
| 20260509002358 | 23 | 74 | 4.8 | 8.0 | 0.00 | 2.95 | 2.95 | 74 | 1006.2 |
| 20260509001855 | 23 | 93 | 0.0 | 1.6 | 0.00 | 2.95 | 2.95 | 74 | 1006.4 |
| 20260509001351 | 23 | 105 | 1.6 | 3.2 | 0.00 | 2.95 | 2.95 | 74 | 1006.4 |
| 20260509000848 | 23 | 83 | 0.0 | 3.2 | 0.00 | 2.95 | 2.95 | 74 | 1006.4 |
| 20260509000348 | 23 | 86 | 1.6 | 3.2 | 0.00 | 2.95 | 2.95 | 74 | 1006.4 |
| 20260508235842 | 23 | 87 | 1.6 | 4.8 | 0.00 | 2.95 | 2.95 | 73 | 1006.4 |
| 20260508235339 | 23 | 120 | 3.2 | 4.8 | 0.00 | 2.95 | 2.95 | 73 | 1006.5 |
| 20260508234836 | 23 | 120 | 3.2 | 4.8 | 0.00 | 2.95 | 2.95 | 72 | 1006.5 |
| 20260508234333 | 23 | 90 | 1.6 | 1.6 | 0.00 | 2.95 | 2.95 | 72 | 1006.7 |
| 20260508233831 | 24 | 100 | 3.2 | 4.8 | 0.00 | 2.95 | 2.95 | 71 | 1006.7 |
| 20260508233330 | 24 | 96 | 0.0 | 4.8 | 0.00 | 2.95 | 2.95 | 71 | 1006.6 |
| 20260508232827 | 24 | 79 | 1.6 | 3.2 | 0.00 | 2.95 | 2.95 | 71 | 1006.7 |
| 20260508232323 | 25 | 102 | 3.2 | 9.7 | 0.00 | 2.95 | 2.95 | 70 | 1006.8 |
| 20260508231822 | 25 | 95 | 1.6 | 3.2 | 0.00 | 2.95 | 2.95 | 71 | 1006.7 |
| 20260508231317 | 25 | 83 | 1.6 | 8.0 | 0.00 | 2.95 | 2.95 | 71 | 1006.6 |
| 20260508230814 | 25 | 103 | 1.6 | 4.8 | 0.00 | 2.95 | 2.95 | 71 | 1006.9 |
| 20260508230311 | 25 | 89 | 4.8 | 8.0 | 0.00 | 2.95 | 2.95 | 70 | 1006.8 |
| 20260508225809 | 25 | 90 | 0.0 | 4.8 | 0.00 | 2.95 | 2.95 | 70 | 1006.5 |
| 20260508225306 | 25 | 107 | 3.2 | 4.8 | 0.00 | 2.95 | 2.95 | 69 | 1006.9 |
| 20260508224803 | 25 | 116 | 4.8 | 8.0 | 0.00 | 2.95 | 2.95 | 69 | 1006.9 |
| 20260508224300 | 25 | 104 | 1.6 | 3.2 | 0.00 | 2.95 | 2.95 | 68 | 1007.1 |
| 20260508223758 | 26 | 83 | 0.0 | 3.2 | 0.00 | 2.95 | 2.95 | 67 | 1007.0 |
| 20260508223255 | 26 | 81 | 0.0 | 4.8 | 0.00 | 2.95 | 2.95 | 67 | 1006.7 |
| 20260508222752 | 26 | 131 | 4.8 | 4.8 | 0.00 | 2.95 | 2.95 | 65 | 1006.7 |
| 20260508222249 | 26 | 109 | 4.8 | 4.8 | 0.00 | 2.95 | 2.95 | 66 | 1006.9 |
| 20260508221746 | 26 | 113 | 1.6 | 3.2 | 0.00 | 2.95 | 2.95 | 64 | 1006.6 |
| 20260508221242 | 26 | 111 | 1.6 | 3.2 | 0.00 | 2.95 | 2.95 | 63 | 1006.9 |
| 20260508220738 | 26 | 92 | 0.0 | 3.2 | 0.00 | 2.95 | 2.95 | 64 | 1006.8 |
| 20260508220235 | 26 | 119 | 3.2 | 4.8 | 0.00 | 2.95 | 2.95 | 64 | 1006.8 |
| 20260508215731 | 26 | 137 | 6.4 | 8.0 | 0.00 | 2.95 | 2.95 | 64 | 1006.8 |
| 20260508215227 | 26 | 97 | 1.6 | 3.2 | 0.00 | 2.95 | 2.95 | 65 | 1006.6 |
| 20260508214725 | 26 | 133 | 1.6 | 8.0 | 0.00 | 2.95 | 2.95 | 65 | 1006.6 |
| 20260508214222 | 25 | 101 | 3.2 | 9.7 | 0.00 | 2.95 | 2.95 | 66 | 1006.6 |
| 20260508213718 | 25 | 128 | 1.6 | 3.2 | 0.00 | 2.95 | 2.95 | 65 | 1006.5 |
| 20260508213215 | 26 | 142 | 1.6 | 8.0 | 0.00 | 2.95 | 2.95 | 65 | 1006.6 |
| 20260508212712 | 26 | 97 | 1.6 | 1.6 | 0.00 | 2.95 | 2.95 | 64 | 1006.9 |
| 20260508212208 | 25 | 83 | 0.0 | 3.2 | 0.00 | 2.95 | 2.95 | 66 | 1006.6 |
| 20260508211704 | 26 | 108 | 8.0 | 11.3 | 0.00 | 2.95 | 2.95 | 64 | 1006.8 |
| 20260508211200 | 25 | 98 | 1.6 | 4.8 | 0.00 | 2.95 | 2.95 | 66 | 1007.2 |
| 20260508210657 | 26 | 95 | 4.8 | 9.7 | 0.00 | 2.95 | 2.95 | 64 | 1007.3 |
| 20260508210154 | 26 | 88 | 1.6 | 8.0 | 0.00 | 2.95 | 2.95 | 65 | 1007.6 |
| 20260508205651 | 25 | 130 | 1.6 | 4.8 | 0.00 | 2.95 | 2.95 | 64 | 1007.7 |
| 20260508205147 | 25 | 143 | 4.8 | 8.0 | 0.00 | 2.95 | 2.95 | 65 | 1007.7 |
| 20260508204644 | 25 | 101 | 1.6 | 8.0 | 0.00 | 2.95 | 2.95 | 66 | 1008.2 |
| 20260508204140 | 25 | 109 | 1.6 | 3.2 | 0.00 | 2.95 | 2.95 | 65 | 1008.3 |
| 20260508203636 | 26 | 82 | 0.0 | 3.2 | 0.00 | 2.95 | 2.95 | 65 | 1008.4 |
| 20260508203133 | 26 | 142 | 1.6 | 3.2 | 0.00 | 2.95 | 2.95 | 64 | 1008.4 |
| 20260508202629 | 26 | 75 | 0.0 | 8.0 | 0.00 | 2.95 | 2.95 | 64 | 1008.5 |
| 20260508202126 | 26 | 110 | 1.6 | 3.2 | 0.00 | 2.95 | 2.95 | 62 | 1008.6 |
| 20260508201623 | 26 | 71 | 0.0 | 1.6 | 0.00 | 2.95 | 2.95 | 64 | 1008.5 |
| 20260508201119 | 26 | 130 | 1.6 | 8.0 | 0.00 | 2.95 | 2.95 | 64 | 1008.5 |
| 20260508200616 | 26 | 74 | 1.6 | 3.2 | 0.00 | 2.95 | 2.95 | 63 | 1008.7 |
| 20260508200112 | 26 | 90 | 0.0 | 3.2 | 0.00 | 2.95 | 2.95 | 63 | 1008.4 |
| 20260508195609 | 26 | 95 | 1.6 | 4.8 | 0.00 | 2.95 | 2.95 | 62 | 1008.4 |
| 20260508195105 | 26 | 84 | 0.0 | 4.8 | 0.00 | 2.95 | 2.95 | 61 | 1008.6 |
| 20260508194602 | 26 | 151 | 3.2 | 4.8 | 0.00 | 2.95 | 2.95 | 61 | 1008.7 |
| 20260508194059 | 26 | 85 | 0.0 | 8.0 | 0.00 | 2.95 | 2.95 | 61 | 1008.7 |
| 20260508193555 | 26 | 73 | 3.2 | 4.8 | 0.00 | 2.95 | 2.95 | 61 | 1008.9 |
| 20260508193053 | 25 | 83 | 1.6 | 4.8 | 0.00 | 2.95 | 2.95 | 62 | 1008.8 |
| 20260508192549 | 26 | 81 | 1.6 | 4.8 | 0.00 | 2.95 | 2.95 | 62 | 1009.0 |
| 20260508192046 | 26 | 114 | 3.2 | 3.2 | 0.00 | 2.95 | 2.95 | 61 | 1008.7 |
| 20260508191543 | 25 | 107 | 3.2 | 4.8 | 0.00 | 2.95 | 2.95 | 60 | 1008.9 |
| 20260508191040 | 26 | 70 | 1.6 | 8.0 | 0.00 | 2.95 | 2.95 | 60 | 1009.2 |
| 20260508190537 | 26 | 76 | 0.0 | 3.2 | 0.00 | 2.95 | 2.95 | 60 | 1009.0 |
| 20260508190033 | 26 | 83 | 1.6 | 3.2 | 0.00 | 2.95 | 2.95 | 60 | 1009.1 |
| 20260508185531 | 26 | 79 | 0.0 | 4.8 | 0.00 | 2.95 | 2.95 | 62 | 1009.1 |
| 20260508185028 | 26 | 98 | 1.6 | 4.8 | 0.00 | 2.95 | 2.95 | 61 | 1009.2 |
| 20260508184526 | 25 | 67 | 3.2 | 3.2 | 0.00 | 2.95 | 2.95 | 59 | 1009.1 |
| 20260508184022 | 25 | 93 | 1.6 | 4.8 | 0.00 | 2.95 | 2.95 | 63 | 1009.2 |
| 20260508183519 | 25 | 86 | 1.6 | 3.2 | 0.00 | 2.95 | 2.95 | 62 | 1009.2 |
| 20260508183015 | 25 | 84 | 1.6 | 3.2 | 0.00 | 2.95 | 2.95 | 62 | 1009.4 |
| 20260508182511 | 25 | 58 | 3.2 | 4.8 | 0.00 | 2.95 | 2.95 | 62 | 1009.5 |
| 20260508182008 | 25 | 80 | 0.0 | 4.8 | 0.00 | 2.95 | 2.95 | 64 | 1009.7 |
| 20260508181503 | 25 | 85 | 0.0 | 8.0 | 0.00 | 2.95 | 2.95 | 62 | 1009.8 |
| 20260508181001 | 25 | 77 | 0.0 | 3.2 | 0.00 | 2.95 | 2.95 | 63 | 1009.9 |
| 20260508180458 | 25 | 81 | 0.0 | 3.2 | 0.00 | 2.95 | 2.95 | 63 | 1010.0 |
| 20260508175954 | 24 | 82 | 0.0 | 3.2 | 0.00 | 2.95 | 2.95 | 64 | 1010.0 |
| 20260508175450 | 23 | 85 | 0.0 | 3.2 | 0.00 | 2.95 | 2.95 | 64 | 1010.1 |
| 20260508174948 | 23 | 81 | 3.2 | 4.8 | 0.00 | 2.95 | 2.95 | 64 | 1010.2 |
| 20260508174445 | 23 | 81 | 0.0 | 3.2 | 0.00 | 2.95 | 2.95 | 64 | 1010.1 |
| 20260508173942 | 23 | 94 | 1.6 | 3.2 | 0.00 | 2.95 | 2.95 | 65 | 1010.2 |
| 20260508173439 | 23 | 77 | 0.0 | 1.6 | 0.00 | 2.95 | 2.95 | 65 | 1010.5 |
| 20260508172935 | 23 | 86 | 0.0 | 4.8 | 0.00 | 2.95 | 2.95 | 66 | 1010.7 |
| 20260508172433 | 23 | 96 | 1.6 | 1.6 | 0.00 | 2.95 | 2.95 | 67 | 1010.7 |
| 20260508171929 | 23 | 160 | 3.2 | 4.8 | 0.00 | 2.95 | 2.95 | 65 | 1010.6 |
| 20260508171425 | 22 | 115 | 4.8 | 8.0 | 0.00 | 2.95 | 2.95 | 66 | 1011.0 |
| 20260508170922 | 22 | 97 | 1.6 | 8.0 | 0.00 | 2.95 | 2.95 | 66 | 1011.1 |
| 20260508170419 | 22 | 90 | 3.2 | 8.0 | 0.00 | 2.95 | 2.95 | 68 | 1011.2 |
| 20260508165916 | 22 | 73 | 0.0 | 3.2 | 0.00 | 2.95 | 2.95 | 68 | 1011.4 |
| 20260508165414 | 22 | 79 | 0.0 | 3.2 | 0.00 | 2.95 | 2.95 | 68 | 1011.2 |
| 20260508164909 | 22 | 88 | 1.6 | 8.0 | 0.00 | 2.95 | 2.95 | 68 | 1011.3 |
| 20260508164407 | 22 | 90 | 0.0 | 3.2 | 0.00 | 2.95 | 2.95 | 69 | 1011.7 |
| 20260508163904 | 21 | 80 | 0.0 | 3.2 | 0.00 | 2.95 | 2.95 | 70 | 1011.6 |
| 20260508163402 | 21 | 134 | 1.6 | 3.2 | 0.00 | 2.95 | 2.95 | 72 | 1011.8 |
| 20260508162857 | 21 | 110 | 4.8 | 9.7 | 0.00 | 2.95 | 2.95 | 72 | 1011.9 |
| 20260508162355 | 20 | 107 | 1.6 | 11.3 | 0.00 | 2.95 | 2.95 | 74 | 1011.8 |
| 20260508161851 | 20 | 98 | 1.6 | 3.2 | 0.00 | 2.95 | 2.95 | 74 | 1012.1 |
| 20260508161349 | 20 | 87 | 1.6 | 4.8 | 0.00 | 2.95 | 2.95 | 74 | 1012.0 |
| 20260508160846 | 20 | 86 | 0.0 | 3.2 | 0.00 | 2.95 | 2.95 | 75 | 1011.9 |
| 20260508160345 | 20 | 124 | 1.6 | 8.0 | 0.00 | 2.95 | 2.95 | 75 | 1012.1 |
| 20260508155840 | 19 | 114 | 3.2 | 11.3 | 0.00 | 2.95 | 2.95 | 75 | 1011.9 |
| 20260508155338 | 19 | 135 | 1.6 | 3.2 | 0.00 | 2.95 | 2.95 | 80 | 1012.2 |
| 20260508154835 | 18 | 99 | 1.6 | 3.2 | 0.00 | 2.95 | 2.95 | 82 | 1012.1 |
| 20260508154332 | 17 | 80 | 0.0 | 4.8 | 0.00 | 2.95 | 2.95 | 85 | 1012.5 |
| 20260508153828 | 17 | 85 | 0.0 | 1.6 | 0.00 | 2.95 | 2.95 | 88 | 1012.4 |
| 20260508153326 | 17 | 77 | 1.6 | 3.2 | 0.00 | 2.95 | 2.95 | 91 | 1012.2 |
| 20260508152822 | 17 | 95 | 1.6 | 4.8 | 0.00 | 2.95 | 2.95 | 93 | 1012.1 |
| 20260508152319 | 17 | 113 | 3.2 | 3.2 | 0.00 | 2.95 | 2.95 | 95 | 1012.3 |
| 20260508151815 | 17 | 84 | 0.0 | 0.0 | 0.00 | 2.95 | 2.95 | 96 | 1012.3 |
| 20260508151312 | 17 | 82 | 1.6 | 3.2 | 0.00 | 2.95 | 2.95 | 96 | 1012.1 |
| 20260508150808 | 16 | 86 | 0.0 | 3.2 | 0.00 | 2.95 | 2.95 | 97 | 1012.6 |
| 20260508150305 | 16 | 85 | 0.0 | 0.0 | 0.00 | 2.95 | 2.95 | 97 | 1012.5 |
| 20260508145802 | 16 | 83 | 0.0 | 0.0 | 0.00 | 2.95 | 2.95 | 97 | 1012.5 |
| 20260508145257 | 16 | 99 | 0.0 | 1.6 | 0.00 | 2.95 | 2.95 | 97 | 1012.4 |
| 20260508144754 | 16 | 82 | 0.0 | 1.6 | 0.00 | 2.95 | 2.95 | 97 | 1012.5 |
| 20260508144252 | 16 | 77 | 0.0 | 3.2 | 0.00 | 2.95 | 2.95 | 97 | 1012.7 |
| 20260508143749 | 17 | 82 | 0.0 | 0.0 | 0.00 | 2.95 | 2.95 | 97 | 1012.7 |
| 20260508143246 | 16 | 84 | 0.0 | 1.6 | 0.00 | 2.95 | 2.95 | 97 | 1012.6 |
| 20260508142743 | 16 | 83 | 0.0 | 1.6 | 0.00 | 2.95 | 2.95 | 97 | 1012.6 |
| 20260508142240 | 17 | 69 | 0.0 | 1.6 | 0.00 | 2.95 | 2.95 | 97 | 1012.7 |
| 20260508141736 | 16 | 92 | 0.0 | 1.6 | 0.00 | 2.95 | 2.95 | 97 | 1012.6 |
| 20260508141234 | 16 | 86 | 0.0 | 1.6 | 0.00 | 2.95 | 2.95 | 97 | 1012.6 |
| 20260508140731 | 16 | 97 | 0.0 | 1.6 | 0.00 | 2.95 | 2.95 | 97 | 1013.0 |
| 20260508140227 | 16 | 80 | 0.0 | 0.0 | 0.00 | 2.95 | 2.95 | 97 | 1013.0 |
| 20260508135724 | 16 | 81 | 0.0 | 1.6 | 0.00 | 2.95 | 2.95 | 97 | 1012.8 |
| 20260508135219 | 16 | 92 | 3.2 | 3.2 | 0.00 | 2.95 | 2.95 | 97 | 1012.8 |
| 20260508134710 | 16 | 80 | 0.0 | 0.0 | 0.00 | 2.95 | 2.95 | 97 | 1013.0 |
| 20260508134207 | 15 | 79 | 0.0 | 0.0 | 0.00 | 2.95 | 2.95 | 97 | 1012.7 |
| 20260508133704 | 15 | 71 | 0.0 | 1.6 | 0.00 | 2.95 | 2.95 | 97 | 1012.8 |
| 20260508133202 | 15 | 84 | 0.0 | 0.0 | 0.00 | 2.95 | 2.95 | 97 | 1013.3 |
| 20260508132659 | 16 | 82 | 0.0 | 0.0 | 0.00 | 2.95 | 2.95 | 97 | 1012.7 |
| 20260508132156 | 16 | 77 | 0.0 | 0.0 | 0.00 | 2.95 | 2.95 | 97 | 1012.8 |
| 20260508131651 | 15 | 89 | 0.0 | 1.6 | 0.00 | 2.95 | 2.95 | 97 | 1012.3 |
| 20260508131148 | 16 | 86 | 0.0 | 1.6 | 0.00 | 2.95 | 2.95 | 97 | 1012.4 |
| 20260508130645 | 15 | 114 | 0.0 | 1.6 | 0.00 | 2.95 | 2.95 | 97 | 1012.3 |
| 20260508130142 | 15 | 89 | 0.0 | 0.0 | 0.00 | 2.95 | 2.95 | 97 | 1012.8 |
| 20260508125638 | 15 | 86 | 0.0 | 0.0 | 0.00 | 2.95 | 2.95 | 97 | 1012.8 |
| 20260508125135 | 15 | 86 | 0.0 | 0.0 | 0.00 | 2.95 | 2.95 | 97 | 1012.8 |
| 20260508124633 | 15 | 83 | 0.0 | 0.0 | 0.00 | 2.95 | 2.95 | 97 | 1012.8 |
| 20260508124130 | 15 | 77 | 0.0 | 0.0 | 0.00 | 2.95 | 2.95 | 97 | 1013.6 |
| 20260508123628 | 15 | 77 | 0.0 | 0.0 | 0.00 | 2.95 | 2.95 | 97 | 1013.4 |
| 20260508123125 | 15 | 77 | 0.0 | 0.0 | 0.00 | 2.95 | 2.95 | 97 | 1013.1 |
| 20260508122621 | 15 | 81 | 0.0 | 0.0 | 0.00 | 2.95 | 2.95 | 97 | 1013.3 |
| 20260508122118 | 15 | 81 | 0.0 | 0.0 | 0.00 | 2.95 | 2.95 | 97 | 1013.1 |
| 20260508121617 | 15 | 81 | 0.0 | 0.0 | 0.00 | 2.95 | 2.95 | 97 | 1013.1 |
| 20260508121114 | 15 | 96 | 0.0 | 0.0 | 0.00 | 2.95 | 2.95 | 96 | 1013.0 |
| 20260508120611 | 15 | 86 | 0.0 | 1.6 | 0.00 | 2.95 | 2.95 | 96 | 1012.8 |
| 20260508120110 | 15 | 90 | 0.0 | 1.6 | 0.18 | 2.95 | 2.95 | 96 | 1013.0 |
| 20260508115607 | 15 | 79 | 0.0 | 0.0 | 0.18 | 2.95 | 2.95 | 96 | 1013.1 |
| 20260508115103 | 15 | 74 | 0.0 | 0.0 | 0.00 | 2.92 | 2.92 | 96 | 1013.2 |
| 20260508114601 | 15 | 81 | 0.0 | 0.0 | 0.13 | 2.92 | 2.92 | 96 | 1012.8 |
| 20260508114056 | 15 | 75 | 0.0 | 0.0 | 1.07 | 2.92 | 2.92 | 96 | 1012.8 |
| 20260508113554 | 15 | 75 | 0.0 | 0.0 | 3.66 | 2.90 | 2.90 | 96 | 1012.3 |
| 20260508113052 | 15 | 82 | 0.0 | 0.0 | 2.77 | 2.72 | 2.72 | 95 | 1012.8 |
| 20260508112548 | 15 | 82 | 0.0 | 0.0 | 0.18 | 2.29 | 2.29 | 95 | 1012.7 |
| 20260508112045 | 15 | 85 | 0.0 | 3.2 | 0.00 | 2.26 | 2.26 | 95 | 1012.1 |
| 20260508111542 | 15 | 83 | 0.0 | 1.6 | 0.18 | 2.26 | 2.26 | 95 | 1012.7 |
| 20260508111039 | 15 | 82 | 0.0 | 1.6 | 0.48 | 2.26 | 2.26 | 94 | 1012.4 |
| 20260508110537 | 15 | 85 | 0.0 | 1.6 | 1.19 | 2.24 | 2.24 | 94 | 1012.7 |
| 20260508110033 | 15 | 78 | 0.0 | 0.0 | 1.37 | 2.16 | 2.16 | 94 | 1013.0 |
| 20260508105527 | 15 | 88 | 0.0 | 0.0 | 2.29 | 2.03 | 2.03 | 93 | 1012.7 |
| 20260508105025 | 15 | 91 | 1.6 | 3.2 | 4.98 | 1.91 | 1.91 | 93 | 1012.8 |
| 20260508104523 | 15 | 83 | 0.0 | 1.6 | 5.64 | 1.63 | 1.63 | 92 | 1013.7 |
| 20260508104019 | 16 | 74 | 0.0 | 1.6 | 1.80 | 0.99 | 0.99 | 91 | 1013.2 |
| 20260508103516 | 16 | 82 | 0.0 | 0.0 | 1.07 | 0.69 | 0.69 | 90 | 1013.1 |
| 20260508103014 | 16 | 82 | 0.0 | 0.0 | 4.01 | 0.69 | 0.69 | 89 | 1012.7 |
| 20260508102511 | 16 | 68 | 1.6 | 1.6 | 2.77 | 0.46 | 0.46 | 88 | 1012.5 |
| 20260508102009 | 16 | 176 | 1.6 | 8.0 | 0.00 | 0.00 | 0.00 | 88 | 1013.7 |
| 20260508101506 | 16 | 55 | 0.0 | 1.6 | 0.00 | 0.00 | 0.00 | 88 | 1012.2 |
| 20260508101003 | 16 | 88 | 1.6 | 1.6 | 0.00 | 0.00 | 0.00 | 89 | 1011.6 |
| 20260508100501 | 16 | 85 | 0.0 | 0.0 | 0.00 | 0.00 | 0.00 | 89 | 1011.8 |
| 20260508095957 | 16 | 91 | 0.0 | 1.6 | 0.00 | 0.00 | 0.00 | 90 | 1011.6 |
| 20260508095455 | 16 | 80 | 0.0 | 1.6 | 0.00 | 0.00 | 0.00 | 91 | 1011.8 |
| 20260508094952 | 16 | 85 | 0.0 | 0.0 | 0.00 | 0.00 | 0.00 | 91 | 1011.6 |
| 20260508094448 | 16 | 91 | 0.0 | 1.6 | 0.00 | 0.00 | 0.00 | 91 | 1011.6 |
| 20260508093945 | 16 | 142 | 3.2 | 3.2 | 0.00 | 0.00 | 0.00 | 91 | 1011.8 |
| 20260508093442 | 15 | 89 | 1.6 | 1.6 | 0.00 | 0.00 | 0.00 | 91 | 1012.1 |
| 20260508092940 | 16 | 86 | 0.0 | 1.6 | 0.00 | 0.00 | 0.00 | 91 | 1011.9 |
| 20260508092438 | 16 | 84 | 0.0 | 0.0 | 0.00 | 0.00 | 0.00 | 91 | 1011.9 |
| 20260508091936 | 15 | 84 | 0.0 | 0.0 | 0.00 | 0.00 | 0.00 | 91 | 1012.1 |
| 20260508091432 | 16 | 72 | 0.0 | 0.0 | 0.00 | 0.00 | 0.00 | 90 | 1012.5 |
| 20260508090930 | 16 | 85 | 0.0 | 1.6 | 0.00 | 0.00 | 0.00 | 90 | 1012.0 |
| 20260508090429 | 16 | 88 | 0.0 | 1.6 | 0.00 | 0.00 | 0.00 | 89 | 1011.9 |
| 20260508085924 | 16 | 75 | 0.0 | 0.0 | 0.00 | 0.00 | 0.00 | 88 | 1012.6 |
| 20260508085421 | 16 | 75 | 0.0 | 0.0 | 0.00 | 0.00 | 0.00 | 87 | 1012.6 |
| 20260508084918 | 16 | 75 | 0.0 | 0.0 | 0.00 | 0.00 | 0.00 | 87 | 1012.5 |
| 20260508084414 | 16 | 75 | 0.0 | 0.0 | 0.00 | 0.00 | 0.00 | 87 | 1012.4 |
| 20260508083912 | 16 | 75 | 0.0 | 0.0 | 0.00 | 0.00 | 0.00 | 87 | 1012.8 |
| 20260508083409 | 16 | 84 | 0.0 | 0.0 | 0.00 | 0.00 | 0.00 | 86 | 1012.4 |
| 20260508082909 | 16 | 75 | 0.0 | 1.6 | 0.00 | 0.00 | 0.00 | 86 | 1012.0 |
| 20260508082407 | 16 | 112 | 3.2 | 3.2 | 0.00 | 0.00 | 0.00 | 85 | 1012.5 |
| 20260508081904 | 16 | 126 | 1.6 | 3.2 | 0.00 | 0.00 | 0.00 | 84 | 1012.1 |
| 20260508081401 | 17 | 97 | 1.6 | 1.6 | 0.00 | 0.00 | 0.00 | 82 | 1013.0 |
| 20260508080857 | 17 | 86 | 0.0 | 4.8 | 0.00 | 0.00 | 0.00 | 80 | 1012.5 |
| 20260508080356 | 17 | 95 | 1.6 | 3.2 | 0.00 | 0.00 | 0.00 | 80 | 1013.4 |
| 20260508075852 | 16 | 87 | 0.0 | 1.6 | 0.00 | 0.00 | 0.00 | 80 | 1013.9 |
| 20260508075349 | 16 | 78 | 0.0 | 0.0 | 0.00 | 0.00 | 0.00 | 81 | 1013.9 |
| 20260508074847 | 16 | 87 | 0.0 | 0.0 | 0.00 | 0.00 | 0.00 | 81 | 1013.7 |
| 20260508074343 | 16 | 88 | 0.0 | 0.0 | 0.00 | 0.00 | 0.00 | 81 | 1013.9 |
| 20260508073840 | 16 | 86 | 0.0 | 0.0 | 0.00 | 0.00 | 0.00 | 81 | 1013.4 |
| 20260508073338 | 16 | 86 | 0.0 | 0.0 | 0.00 | 0.00 | 0.00 | 81 | 1013.6 |
| 20260508072835 | 16 | 86 | 0.0 | 0.0 | 0.00 | 0.00 | 0.00 | 81 | 1013.5 |
| 20260508072331 | 16 | 86 | 0.0 | 0.0 | 0.00 | 0.00 | 0.00 | 81 | 1013.2 |
| 20260508071828 | 16 | 86 | 0.0 | 0.0 | 0.00 | 0.00 | 0.00 | 82 | 1013.2 |
| 20260508071327 | 16 | 86 | 0.0 | 0.0 | 0.00 | 0.00 | 0.00 | 82 | 1013.4 |
| 20260508070824 | 16 | 86 | 0.0 | 0.0 | 0.00 | 0.00 | 0.00 | 82 | 1013.4 |
| 20260508070322 | 16 | 86 | 0.0 | 0.0 | 0.00 | 0.00 | 0.00 | 82 | 1013.3 |
| 20260508065819 | 16 | 86 | 0.0 | 0.0 | 0.00 | 0.00 | 0.00 | 82 | 1013.5 |
| 20260508065317 | 16 | 86 | 0.0 | 0.0 | 0.00 | 0.00 | 0.00 | 82 | 1013.4 |
| 20260508064815 | 16 | 86 | 0.0 | 0.0 | 0.00 | 0.00 | 0.00 | 82 | 1013.8 |
| 20260508064313 | 16 | 86 | 0.0 | 0.0 | 0.00 | 0.00 | 0.00 | 81 | 1014.1 |
| 20260508063810 | 16 | 86 | 0.0 | 0.0 | 0.00 | 0.00 | 0.00 | 81 | 1014.3 |
| 20260508063308 | 16 | 86 | 0.0 | 0.0 | 0.00 | 0.00 | 0.00 | 81 | 1014.3 |
| 20260508062805 | 16 | 86 | 0.0 | 0.0 | 0.00 | 0.00 | 0.00 | 81 | 1014.1 |
| 20260508062306 | 16 | 86 | 0.0 | 0.0 | 0.00 | 0.00 | 0.00 | 80 | 1014.0 |
| 20260508061759 | 16 | 86 | 0.0 | 0.0 | 0.00 | 0.00 | 0.00 | 80 | 1014.0 |
| 20260508061256 | 16 | 86 | 0.0 | 0.0 | 0.00 | 0.00 | 0.00 | 80 | 1013.9 |
| 20260508060753 | 16 | 86 | 0.0 | 0.0 | 0.00 | 0.00 | 0.00 | 80 | 1013.8 |
| 20260508060251 | 16 | 86 | 0.0 | 0.0 | 0.00 | 0.00 | 0.00 | 80 | 1013.9 |
| 20260508055746 | 16 | 86 | 0.0 | 0.0 | 0.00 | 0.00 | 0.00 | 79 | 1014.0 |
| 20260508055243 | 16 | 86 | 0.0 | 0.0 | 0.00 | 0.00 | 0.00 | 79 | 1013.7 |